| time (UTC) | temp F | wind direction | speed MPH | gust MPH | rain 1hr in | rain 24hr in | rain mn in | humidity % | barometer mb |
| 20260505033719 | 65 | 36 | 2.0 | 9.0 | 0.00 | 0.00 | 0.00 | 66 | 1009.7 |
| 20260505032646 | 66 | 63 | 1.0 | 9.0 | 0.00 | 0.00 | 0.00 | 65 | 1009.7 |
| 20260505031702 | 66 | 59 | 1.0 | 6.0 | 0.00 | 0.00 | 0.00 | 65 | 1009.7 |
| 20260505030702 | 66 | 39 | 1.0 | 7.0 | 0.00 | 0.00 | 0.00 | 64 | 1009.7 |
| 20260505025647 | 67 | 11 | 1.0 | 7.0 | 0.00 | 0.00 | 0.00 | 62 | 1009.7 |
| 20260505024657 | 67 | 98 | 1.0 | 5.0 | 0.00 | 0.00 | 0.00 | 60 | 1009.7 |
| 20260505023711 | 68 | 75 | 1.0 | 11.0 | 0.00 | 0.00 | 0.00 | 58 | 1009.7 |
| 20260505022640 | 68 | 357 | 2.0 | 11.0 | 0.00 | 0.00 | 0.00 | 56 | 1009.5 |
| 20260505021657 | 68 | 162 | 1.0 | 9.0 | 0.00 | 0.00 | 0.00 | 53 | 1009.5 |
| 20260505020640 | 68 | 33 | 1.0 | 7.0 | 0.00 | 0.00 | 0.00 | 50 | 1009.3 |
| 20260505015651 | 68 | 236 | 0.0 | 7.0 | 0.00 | 0.00 | 0.00 | 51 | 1009.2 |
| 20260505013513 | 68 | 1 | 0.0 | 3.0 | 0.00 | 0.00 | 0.00 | 51 | 1009.2 |
| 20260505012441 | 68 | 68 | 0.0 | 3.0 | 0.00 | 0.00 | 0.00 | 50 | 1009.0 |
| 20260505011422 | 68 | 82 | 0.0 | 3.0 | 0.00 | 0.00 | 0.00 | 50 | 1009.0 |
| 20260505010410 | 69 | 23 | 0.0 | 2.0 | 0.00 | 0.00 | 0.00 | 48 | 1008.9 |
| 20260505004252 | 70 | 82 | 0.0 | 2.0 | 0.00 | 0.00 | 0.00 | 46 | 1008.7 |
| 20260505003223 | 71 | 79 | 0.0 | 1.0 | 0.00 | 0.00 | 0.00 | 44 | 1008.7 |
| 20260505002234 | 71 | 30 | 0.0 | 9.0 | 0.00 | 0.00 | 0.00 | 45 | 1008.5 |
| 20260505001209 | 72 | 30 | 0.0 | 9.0 | 0.00 | 0.00 | 0.00 | 43 | 1008.4 |
| 20260505000156 | 73 | 77 | 0.0 | 0.0 | 0.00 | 0.00 | 0.00 | 41 | 1008.4 |
| 20260504235148 | 74 | 77 | 0.0 | 0.0 | 0.00 | 0.00 | 0.00 | 40 | 1008.3 |
| 20260504234154 | 75 | 37 | 0.0 | 1.0 | 0.00 | 0.00 | 0.00 | 39 | 1008.2 |
| 20260504233124 | 75 | 106 | 0.0 | 3.0 | 0.00 | 0.00 | 0.00 | 38 | 1008.2 |
| 20260504232056 | 76 | 84 | 0.0 | 8.0 | 0.00 | 0.00 | 0.00 | 38 | 1008.0 |
| 20260504231115 | 77 | 127 | 1.0 | 8.0 | 0.00 | 0.00 | 0.00 | 37 | 1008.0 |
| 20260504230051 | 78 | 32 | 0.0 | 6.0 | 0.00 | 0.00 | 0.00 | 37 | 1008.0 |
| 20260504225023 | 79 | 197 | 0.0 | 6.0 | 0.00 | 0.00 | 0.00 | 36 | 1008.0 |
| 20260504224003 | 79 | 228 | 0.0 | 11.0 | 0.00 | 0.00 | 0.00 | 38 | 1008.0 |
| 20260504222942 | 79 | 50 | 2.0 | 11.0 | 0.00 | 0.00 | 0.00 | 35 | 1008.0 |
| 20260504221956 | 80 | 351 | 1.0 | 6.0 | 0.00 | 0.00 | 0.00 | 36 | 1007.9 |
| 20260504220954 | 80 | 11 | 0.0 | 4.0 | 0.00 | 0.00 | 0.00 | 36 | 1007.9 |
| 20260504214828 | 80 | 203 | 1.0 | 8.0 | 0.00 | 0.00 | 0.00 | 35 | 1008.0 |
| 20260504212628 | 80 | 75 | 1.0 | 7.0 | 0.00 | 0.00 | 0.00 | 38 | 1008.2 |
| 20260504211624 | 80 | 82 | 2.0 | 8.0 | 0.00 | 0.00 | 0.00 | 34 | 1008.2 |
| 20260504210635 | 80 | 93 | 2.0 | 8.0 | 0.00 | 0.00 | 0.00 | 36 | 1008.1 |
| 20260504205631 | 79 | 165 | 2.0 | 9.0 | 0.00 | 0.00 | 0.00 | 35 | 1008.2 |
| 20260504204620 | 79 | 89 | 1.0 | 9.0 | 0.00 | 0.00 | 0.00 | 35 | 1008.2 |
| 20260504203607 | 79 | 43 | 2.0 | 6.0 | 0.00 | 0.00 | 0.00 | 38 | 1008.3 |
| 20260504202603 | 79 | 98 | 1.0 | 6.0 | 0.00 | 0.00 | 0.00 | 36 | 1008.3 |
| 20260504200417 | 78 | 179 | 2.0 | 9.0 | 0.00 | 0.00 | 0.00 | 35 | 1008.3 |
| 20260504195409 | 78 | 359 | 1.0 | 11.0 | 0.00 | 0.00 | 0.00 | 37 | 1008.7 |
| 20260504194416 | 78 | 80 | 2.0 | 11.0 | 0.00 | 0.00 | 0.00 | 38 | 1008.7 |
| 20260504193401 | 79 | 44 | 1.0 | 9.0 | 0.00 | 0.00 | 0.00 | 38 | 1008.8 |
| 20260504192332 | 79 | 61 | 1.0 | 8.0 | 0.00 | 0.00 | 0.00 | 37 | 1008.8 |
| 20260504191314 | 78 | 153 | 2.0 | 10.0 | 0.00 | 0.00 | 0.00 | 39 | 1008.9 |
| 20260504190256 | 78 | 183 | 2.0 | 10.0 | 0.00 | 0.00 | 0.00 | 39 | 1008.9 |
| 20260504184053 | 77 | 111 | 1.0 | 8.0 | 0.00 | 0.00 | 0.00 | 39 | 1009.3 |
| 20260504183046 | 77 | 158 | 1.0 | 10.0 | 0.00 | 0.00 | 0.00 | 36 | 1009.3 |
| 20260504182029 | 76 | 40 | 1.0 | 10.0 | 0.00 | 0.00 | 0.00 | 38 | 1009.4 |
| 20260504181041 | 76 | 193 | 2.0 | 7.0 | 0.00 | 0.00 | 0.00 | 38 | 1009.5 |
| 20260504180100 | 76 | 303 | 2.0 | 6.0 | 0.00 | 0.00 | 0.00 | 38 | 1009.5 |
| 20260504175041 | 75 | 240 | 1.0 | 6.0 | 0.00 | 0.00 | 0.00 | 40 | 1009.5 |
| 20260504174106 | 75 | 118 | 0.0 | 4.0 | 0.00 | 0.00 | 0.00 | 39 | 1009.9 |
| 20260504173126 | 75 | 272 | 1.0 | 7.0 | 0.00 | 0.00 | 0.00 | 42 | 1009.9 |
| 20260504170935 | 74 | 285 | 1.0 | 5.0 | 0.00 | 0.00 | 0.00 | 43 | 1010.4 |
| 20260504150635 | 70 | 130 | 1.0 | 6.0 | 0.00 | 0.00 | 0.00 | 52 | 1011.0 |
| 20260504140425 | 63 | 191 | 0.0 | 5.0 | 0.00 | 0.00 | 0.00 | 71 | 1011.6 |
| 20260504100550 | 46 | 5 | 0.0 | 1.0 | 0.00 | 0.00 | 0.00 | 86 | 1011.6 |
| 20260504081152 | 49 | 36 | 0.0 | 3.0 | 0.00 | 0.00 | 0.00 | 74 | 1011.7 |
| 20260504080122 | 49 | 89 | 0.0 | 3.0 | 0.00 | 0.00 | 0.00 | 74 | 1011.7 |
| 20260504045028 | 49 | 308 | 0.0 | 0.0 | 0.00 | 0.00 | 0.00 | 70 | 1012.3 |
| 20260504042910 | 49 | 316 | 0.0 | 0.0 | 0.00 | 0.00 | 0.00 | 72 | 1012.3 |
| 20260504041841 | 49 | 316 | 0.0 | 0.0 | 0.00 | 0.00 | 0.00 | 74 | 1012.3 |
| 20260504040836 | 49 | 316 | 0.0 | 0.0 | 0.00 | 0.00 | 0.00 | 73 | 1012.3 |
| 20260504035814 | 49 | 316 | 0.0 | 0.0 | 0.00 | 0.00 | 0.00 | 71 | 1012.3 |
| 20260504034747 | 49 | 316 | 0.0 | 0.0 | 0.00 | 0.00 | 0.00 | 68 | 1012.3 |